Date String (YYYY-MM-DD hh:mm:ss) UTC,Instrument flags,absolute air pressure of the measurement (hPa),sample flow rate (lpm),inlet stack bypass flow (lpm),air temperature of the measurement (°C),ambient temperature measured by the external sensor (°C),aerosol sample conditioner tube jacket temperature (°C),OPC LED temperature (°C),internal box temperature (°C),relative humidity of the measurement (%),span deviation,mass concentration of particles derived from Lorenz-Mie calculation of OPC scattering (μg/m³),mass concentration of particles derived from Lorenz-Mie calculation of OPC scattering (μg/m³),mass concentration of particles derived from Lorenz-Mie calculation of OPC scattering (μg/m³)
DateTimeUTC,F1_M11,P_M11,Q1_M11,Q2_M11,T1_M11,T2_M11,T3_M11,T4_M11,T5_M11,U1_M11,ZSPAN_M11,X2_M11,X0_M11,X1_M11
2023-11-08 20:00:00,SystemResetWarning,0832.0,5.00,000.00,025.3,024.1,000.0,033.7,026.7,19.8,0000.0,0003.23,0005.25,0002.81
2023-11-08 20:01:00,SystemResetWarning,0831.9,5.00,000.00,025.3,024.1,000.0,033.7,026.7,19.8,0000.0,0003.24,0005.16,0002.81
2023-11-08 20:02:00,SystemResetWarning,0831.9,5.00,000.00,025.3,024.2,000.0,033.7,026.7,20.0,0000.0,0003.22,0004.34,0002.80
2023-11-08 20:03:00,SystemResetWarning,0831.9,4.99,000.00,025.3,024.1,000.0,033.7,026.7,19.8,0000.0,0003.23,0004.38,0002.81
2023-11-08 20:04:00,SystemResetWarning,0831.9,5.00,000.00,025.3,024.1,000.0,033.7,026.7,19.9,0000.0,0003.24,0004.41,0002.81
2023-11-08 20:05:00,SystemResetWarning,0831.9,5.03,000.00,025.3,024.1,000.0,033.7,026.7,19.9,0000.0,0003.23,0004.55,0002.81
2023-11-08 20:06:00,SystemResetWarning,0831.9,4.99,000.00,025.3,024.1,000.0,033.7,026.7,19.9,0000.0,0003.22,0004.55,0002.79
2023-11-08 20:07:00,SystemResetWarning,0831.9,4.99,000.00,025.2,024.1,000.0,033.7,026.7,19.9,0000.0,0003.21,0004.44,0002.78
2023-11-08 20:08:00,SystemResetWarning,0832.0,5.00,000.00,025.2,024.1,000.0,033.7,026.7,20.0,0000.0,0003.23,0004.55,0002.77
2023-11-08 20:09:00,SystemResetWarning,0832.0,5.01,000.00,025.2,024.0,000.0,033.7,026.7,20.0,0000.0,0003.19,0004.42,0002.76
2023-11-08 20:10:00,SystemResetWarning,0832.0,5.01,000.00,025.2,024.0,000.0,033.7,026.7,20.0,0000.0,0003.22,0004.63,0002.76
2023-11-08 20:11:00,SystemResetWarning,0832.0,5.00,000.00,025.2,024.0,000.0,033.6,026.6,19.9,0000.0,0003.23,0004.71,0002.77
2023-11-08 20:12:00,SystemResetWarning,0832.1,4.99,000.00,025.2,024.0,000.0,033.6,026.6,20.0,0000.0,0003.21,0004.63,0002.78
2023-11-08 20:13:00,SystemResetWarning,0832.0,5.00,000.00,025.2,024.0,000.0,033.6,026.6,20.1,0000.0,0003.21,0004.57,0002.81
2023-11-08 20:14:00,SystemResetWarning,0832.1,5.00,000.00,025.1,024.0,000.0,033.6,026.6,20.1,0000.0,0003.20,0004.75,0002.82
2023-11-08 20:15:00,SystemResetWarning,0832.1,5.00,000.00,025.1,024.0,000.0,033.6,026.6,20.0,0000.0,0003.20,0004.74,0002.83
2023-11-08 20:16:00,SystemResetWarning,0832.1,5.00,000.00,025.1,024.0,000.0,033.6,026.6,20.0,0000.0,0003.19,0004.55,0002.86
2023-11-08 20:17:00,SystemResetWarning,0832.1,5.00,000.00,025.1,024.0,000.0,033.6,026.5,20.0,0000.0,0003.23,0004.55,0002.89
2023-11-08 20:18:00,SystemResetWarning,0832.1,5.00,000.00,025.1,024.0,000.0,033.6,026.5,20.1,0000.0,0003.24,0004.57,0002.90
2023-11-08 20:19:00,SystemResetWarning,0832.1,5.00,000.00,025.1,024.0,000.0,033.6,026.5,20.2,0000.0,0003.21,0004.92,0002.93
2023-11-08 20:20:00,SystemResetWarning,0832.1,5.00,000.00,025.1,023.9,000.0,033.6,026.5,20.2,0000.0,0003.23,0005.46,0002.96
2023-11-08 20:21:00,SystemResetWarning,0832.1,5.00,000.00,025.1,023.9,000.0,033.6,026.4,20.4,0000.0,0003.23,0005.45,0002.97
2023-11-08 20:22:00,SystemResetWarning,0832.1,5.00,000.00,025.0,023.9,000.0,033.5,026.4,20.3,0000.0,0003.22,0005.36,0002.99
2023-11-08 20:23:00,SystemResetWarning,0832.2,5.00,000.00,025.0,023.9,000.0,033.5,026.3,20.1,0000.0,0003.26,0005.53,0003.00
2023-11-08 20:24:00,SystemResetWarning,0832.1,5.00,000.00,025.0,023.9,000.0,033.5,026.3,20.0,0000.0,0003.30,0005.80,0003.00
2023-11-08 20:25:00,SystemResetWarning,0832.1,5.00,000.00,025.0,023.9,000.0,033.5,026.4,20.2,0000.0,0003.32,0005.63,0003.03
2023-11-08 20:26:00,SystemResetWarning,0832.2,5.00,000.00,025.0,023.8,000.0,033.5,026.3,20.2,0000.0,0003.33,0005.59,0003.04
2023-11-08 20:27:00,SystemResetWarning,0832.1,5.00,000.00,024.9,023.8,000.0,033.5,026.3,20.2,0000.0,0003.35,0005.69,0003.04
2023-11-08 20:28:00,SystemResetWarning,0832.1,5.01,000.00,024.9,023.8,000.0,033.5,026.3,20.3,0000.0,0003.34,0005.65,0003.05
2023-11-08 20:29:00,SystemResetWarning,0832.1,5.00,000.00,024.9,023.8,000.0,033.4,026.3,20.6,0000.0,0003.36,0005.66,0003.08
2023-11-08 20:30:00,SystemResetWarning,0832.1,5.00,000.00,024.9,023.8,000.0,033.4,026.3,20.6,0000.0,0003.36,0005.36,0003.09
2023-11-08 20:31:00,SystemResetWarning,0832.1,5.00,000.00,024.9,023.8,000.0,033.4,026.2,20.6,0000.0,0003.37,0005.48,0003.10
2023-11-08 20:32:00,SystemResetWarning,0832.1,5.01,000.00,024.9,023.8,000.0,033.4,026.1,20.6,0000.0,0003.39,0005.46,0003.11
2023-11-08 20:33:00,SystemResetWarning,0832.1,5.01,000.00,024.8,023.8,000.0,033.4,026.2,20.6,0000.0,0003.41,0005.51,0003.13
2023-11-08 20:34:00,SystemResetWarning,0832.1,5.00,000.00,024.8,023.8,000.0,033.4,026.1,20.7,0000.0,0003.42,0005.55,0003.15
2023-11-08 20:35:00,SystemResetWarning,0832.1,5.01,000.00,024.8,023.8,000.0,033.4,026.1,20.9,0000.0,0003.43,0005.50,0003.17
2023-11-08 20:36:00,SystemResetWarning,0832.1,5.00,000.00,024.8,023.8,000.0,033.3,026.0,20.9,0000.0,0003.44,0005.52,0003.17
2023-11-08 20:37:00,SystemResetWarning,0832.1,5.00,000.00,024.7,023.8,000.0,033.3,025.9,21.0,0000.0,0003.44,0005.55,0003.18
2023-11-08 20:38:00,SystemResetWarning,0832.1,5.00,000.00,024.7,023.8,000.0,033.3,025.9,20.9,0000.0,0003.44,0005.51,0003.19
2023-11-08 20:39:00,SystemResetWarning,0832.1,5.00,000.00,024.7,023.7,000.0,033.3,025.7,20.7,0000.0,0003.45,0005.51,0003.20
2023-11-08 20:40:00,SystemResetWarning,0832.1,5.00,000.00,024.7,023.7,000.0,033.3,025.7,20.8,0000.0,0003.46,0005.53,0003.21
2023-11-08 20:41:00,SystemResetWarning,0832.1,5.00,000.00,024.7,023.7,000.0,033.2,025.8,21.0,0000.0,0003.48,0005.63,0003.22
2023-11-08 20:42:00,SystemResetWarning,0832.2,5.00,000.00,024.6,023.7,000.0,033.2,025.8,20.8,0000.0,0003.52,0005.23,0003.23
2023-11-08 20:43:00,SystemResetWarning,0832.2,4.99,000.00,024.6,023.7,000.0,033.2,025.9,20.8,0000.0,0003.49,0005.13,0003.23
2023-11-08 20:44:00,SystemResetWarning,0832.2,4.99,000.00,024.6,023.7,000.0,033.2,025.9,20.9,0000.0,0003.50,0005.12,0003.24
2023-11-08 20:45:00,SystemResetWarning,0832.2,5.00,000.00,024.6,023.7,000.0,033.2,025.7,20.8,0000.0,0003.50,0005.75,0003.24
2023-11-08 20:46:00,SystemResetWarning,0832.2,5.01,000.00,024.6,023.6,000.0,033.1,025.8,20.7,0000.0,0003.52,0006.80,0003.24
2023-11-08 20:47:00,SystemResetWarning,0832.2,5.01,000.00,024.6,023.6,000.0,033.1,025.7,20.7,0000.0,0003.51,0006.76,0003.24
2023-11-08 20:48:00,SystemResetWarning,0832.2,4.99,000.00,024.6,023.6,000.0,033.1,025.7,20.7,0000.0,0003.52,0006.80,0003.25
2023-11-08 20:49:00,SystemResetWarning,0832.2,4.99,000.00,024.5,023.6,000.0,033.1,025.7,21.2,0000.0,0003.52,0006.84,0003.25
2023-11-08 20:50:00,SystemResetWarning,0832.2,5.00,000.00,024.5,023.6,000.0,033.1,025.8,21.2,0000.0,0003.53,0006.83,0003.26
2023-11-08 20:51:00,SystemResetWarning,0832.2,5.00,000.00,024.5,023.6,000.0,033.1,025.7,21.2,0000.0,0003.53,0006.86,0003.26
2023-11-08 20:52:00,SystemResetWarning,0832.2,5.01,000.00,024.5,023.6,000.0,033.0,025.7,20.8,0000.0,0003.52,0006.78,0003.26
2023-11-08 20:53:00,SystemResetWarning,0832.2,5.01,000.00,024.5,023.5,000.0,033.0,025.7,20.8,0000.0,0003.51,0006.50,0003.26
2023-11-08 20:54:00,SystemResetWarning,0832.2,5.00,000.00,024.5,023.5,000.0,033.0,025.7,21.1,0000.0,0003.52,0006.56,0003.26
2023-11-08 20:55:00,SystemResetWarning,0832.2,5.00,000.00,024.5,023.5,000.0,033.0,025.7,21.4,0000.0,0003.52,0006.70,0003.26
2023-11-08 20:56:00,SystemResetWarning,0832.2,5.00,000.00,024.5,023.5,000.0,033.0,025.7,21.3,0000.0,0003.53,0006.09,0003.26
2023-11-08 20:57:00,SystemResetWarning,0832.2,5.00,000.00,024.5,023.5,000.0,033.0,025.6,21.3,0000.0,0003.50,0004.84,0003.26
2023-11-08 20:58:00,SystemResetWarning,0832.2,5.02,000.00,024.4,023.5,000.0,033.0,025.6,21.5,0000.0,0003.49,0004.79,0003.26
2023-11-08 20:59:00,SystemResetWarning,0832.2,5.00,000.00,024.4,023.5,000.0,033.0,025.6,21.4,0000.0,0003.49,0004.73,0003.27
